GW0360 Weather Reports


Display with metric or nautical units.
time (UTC)temp
F
wind
direction
speed
MPH
gust
MPH
rain 1hr
in
rain 24hr
in
rain mn
in
humidity
%
barometer
mb
20260505235545 55 0 0.0 2.0 0.00 0.32 0.32 58 1012.4
20260505235041 55 0 0.0 2.0 0.00 0.32 0.32 58 1012.6
20260505234554 55 5 0.0 2.0 0.00 0.32 0.32 59 1012.6
20260505234041 55 0 0.0 3.0 0.00 0.32 0.32 58 1012.8
20260505233540 55 0 0.0 3.0 0.00 0.32 0.32 59 1012.7
20260505233055 55 332 0.0 3.0 0.00 0.32 0.32 59 1012.7
20260505232540 55 21 0.0 2.0 0.00 0.32 0.32 57 1012.4
20260505232044 55 0 0.0 2.0 0.00 0.32 0.32 57 1012.4
20260505231611 55 0 0.0 2.0 0.00 0.32 0.32 59 1012.3
20260505231042 55 5 0.0 5.0 0.00 0.32 0.32 64 1012.3
20260505230540 55 0 0.0 5.0 0.00 0.32 0.32 66 1012.2
20260505230106 55 0 0.0 5.0 0.00 0.32 0.32 64 1012.2
20260505225544 55 0 0.0 5.0 0.00 0.32 0.32 67 1012.2
20260505225044 55 0 0.0 5.0 0.00 0.32 0.32 67 1012.2
20260505224558 55 292 0.0 5.0 0.00 0.32 0.32 68 1012.3
20260505224040 55 0 0.0 3.0 0.00 0.32 0.32 70 1012.4
20260505223540 55 0 0.0 3.0 0.00 0.32 0.32 71 1012.3
20260505223054 54 0 0.0 3.0 0.00 0.32 0.32 72 1012.3
20260505222540 54 0 0.0 3.0 0.00 0.32 0.32 71 1012.3
20260505222040 54 0 0.0 3.0 0.00 0.32 0.32 71 1012.1
20260505221559 54 0 0.0 3.0 0.00 0.32 0.32 72 1012.1
20260505221040 54 0 0.0 4.0 0.00 0.32 0.32 73 1012.1
20260505220541 54 0 0.0 4.0 0.00 0.32 0.32 73 1012.3
20260505220054 54 0 0.0 5.0 0.00 0.32 0.32 73 1012.4
20260505215541 54 0 1.0 5.0 0.00 0.32 0.32 71 1012.4
20260505215046 54 308 0.0 4.0 0.00 0.32 0.32 71 1012.6
20260505214556 54 300 0.0 5.0 0.00 0.32 0.32 72 1012.6
20260505214044 54 0 0.0 5.0 0.00 0.32 0.32 73 1012.5
20260505213540 53 321 0.0 5.0 0.00 0.32 0.32 72 1012.7
20260505213057 53 299 0.0 4.0 0.00 0.32 0.32 72 1012.7
20260505212540 53 0 0.0 4.0 0.00 0.32 0.32 72 1012.8
20260505212043 53 0 0.0 3.0 0.00 0.32 0.32 72 1012.8
20260505211555 53 0 0.0 4.0 0.00 0.32 0.32 71 1012.8
20260505211041 53 0 0.0 4.0 0.00 0.32 0.32 72 1012.8
20260505210540 53 0 0.0 4.0 0.00 0.32 0.32 72 1012.8
20260505210048 53 0 0.0 3.0 0.00 0.32 0.32 72 1012.9
20260505205543 53 317 0.0 4.0 0.00 0.32 0.32 73 1012.9
20260505205041 53 0 0.0 4.0 0.00 0.32 0.32 72 1012.9
20260505204553 53 318 0.0 4.0 0.00 0.32 0.32 72 1013.0
20260505204040 53 273 0.0 4.0 0.00 0.32 0.32 73 1012.8
20260505203541 53 0 0.0 4.0 0.00 0.32 0.32 72 1012.9
20260505203058 53 0 0.0 2.0 0.00 0.32 0.32 72 1013.0
20260505202541 53 0 0.0 3.0 0.00 0.32 0.32 72 1013.0
20260505202041 53 0 0.0 3.0 0.00 0.32 0.32 72 1013.0
20260505201550 53 0 0.0 2.0 0.00 0.32 0.32 72 1013.0
20260505201041 53 0 0.0 1.0 0.00 0.32 0.32 72 1013.1
20260505200541 53 0 0.0 2.0 0.00 0.32 0.32 72 1013.1
20260505200049 53 348 0.0 2.0 0.00 0.32 0.32 75 1013.0
20260505195541 52 0 0.0 2.0 0.00 0.32 0.32 74 1013.0
20260505195043 52 0 0.0 2.0 0.00 0.32 0.32 75 1013.1
20260505194605 52 0 0.0 1.0 0.00 0.32 0.32 76 1013.1
20260505194041 51 0 0.0 2.0 0.00 0.32 0.32 76 1013.2
20260505193541 52 0 0.0 4.0 0.00 0.32 0.32 76 1013.4
20260505193049 51 0 0.0 4.0 0.00 0.32 0.32 77 1013.4
20260505192540 51 59 0.0 3.0 0.00 0.32 0.32 77 1013.4
20260505192040 51 0 0.0 5.0 0.00 0.32 0.32 76 1013.2
20260505191604 52 0 0.0 5.0 0.00 0.32 0.32 78 1013.2
20260505191041 52 0 0.0 4.0 0.00 0.32 0.32 77 1013.4
20260505190541 51 0 0.0 4.0 0.00 0.32 0.32 78 1013.4
20260505190050 51 30 0.0 4.0 0.00 0.32 0.32 76 1013.3
20260505185545 51 0 0.0 4.0 0.00 0.32 0.32 79 1013.5
20260505185041 51 0 0.0 3.0 0.00 0.32 0.32 79 1013.4
20260505184550 50 0 0.0 5.0 0.00 0.32 0.32 79 1013.3
20260505184041 50 0 0.0 5.0 0.00 0.32 0.32 81 1013.3
20260505183540 50 40 0.0 5.0 0.00 0.32 0.32 81 1013.3
20260505183055 49 0 0.0 4.0 0.00 0.32 0.32 81 1013.2
20260505182540 49 0 0.0 4.0 0.00 0.32 0.32 81 1013.3
20260505182042 49 0 0.0 4.0 0.00 0.32 0.32 81 1013.4
20260505181552 49 0 0.0 3.0 0.00 0.32 0.32 82 1013.3
20260505181119 49 0 0.0 3.0 0.00 0.32 0.32 82 1013.3
20260505180540 49 100 0.0 3.0 0.00 0.32 0.32 83 1013.2
20260505180057 49 38 0.0 3.0 0.00 0.32 0.32 84 1013.2
20260505175543 49 0 0.0 4.0 0.00 0.32 0.32 83 1013.4
20260505175041 49 123 0.0 4.0 0.01 0.32 0.32 82 1013.7
20260505174554 49 50 1.0 4.0 0.01 0.32 0.32 83 1013.5
20260505174041 49 0 0.0 5.0 0.01 0.32 0.32 85 1013.7
20260505173541 48 113 0.0 5.0 0.01 0.32 0.32 86 1013.8
20260505173111 48 54 1.0 4.0 0.01 0.32 0.32 85 1013.7
20260505172540 48 0 0.0 2.0 0.01 0.32 0.32 87 1013.9
20260505172040 48 0 0.0 2.0 0.01 0.32 0.32 87 1013.7
20260505171608 48 0 0.0 2.0 0.01 0.32 0.32 86 1013.9
20260505171040 48 0 0.0 2.0 0.01 0.32 0.32 86 1013.8
20260505170540 48 0 0.0 2.0 0.01 0.32 0.32 85 1013.7
20260505170052 48 97 0.0 4.0 0.01 0.32 0.32 84 1013.7
20260505165540 48 0 1.0 4.0 0.01 0.32 0.32 85 1013.6
20260505165040 48 0 0.0 4.0 0.00 0.31 0.31 85 1013.6
20260505164558 48 0 0.0 4.0 0.01 0.31 0.31 85 1013.6
20260505164041 48 121 0.0 4.0 0.01 0.31 0.31 85 1013.5
20260505163540 48 85 0.0 4.0 0.01 0.31 0.31 86 1013.6
20260505163048 48 0 0.0 4.0 0.01 0.31 0.31 86 1013.3
20260505162540 48 46 0.0 4.0 0.01 0.31 0.31 86 1013.4
20260505162041 48 105 0.0 2.0 0.01 0.31 0.31 86 1013.5
20260505161554 48 0 0.0 5.0 0.01 0.31 0.31 87 1013.7
20260505161041 48 0 0.0 6.0 0.01 0.31 0.31 87 1013.6
20260505160544 48 0 1.0 6.0 0.01 0.31 0.31 87 1013.4
20260505153051 47 46 1.0 5.0 0.00 0.30 0.30 88 1013.8
20260505152543 47 0 0.0 4.0 0.00 0.30 0.30 89 1013.7
20260505152040 48 0 0.0 9.0 0.00 0.30 0.30 89 1013.4
20260505151548 47 0 0.0 9.0 0.00 0.30 0.30 89 1013.1
20260505151043 47 34 0.0 2.0 0.01 0.30 0.30 89 1013.6
20260505150541 47 0 0.0 1.0 0.01 0.30 0.30 89 1013.7
20260505150110 47 0 0.0 3.0 0.01 0.30 0.30 89 1013.7
20260505140540 47 0 0.0 4.0 0.06 0.29 0.29 90 1012.7
20260505130105 47 0 0.0 2.0 0.13 0.23 0.23 88 1012.1
20260505125040 47 0 0.0 3.0 0.12 0.22 0.22 88 1012.3
20260505124611 47 0 0.0 3.0 0.11 0.21 0.21 87 1012.1
20260505124042 47 44 1.0 3.0 0.10 0.20 0.20 87 1011.9
20260505123540 47 0 0.0 3.0 0.10 0.20 0.20 86 1013.3
20260505123108 47 0 0.0 1.0 0.10 0.20 0.20 85 1012.8
20260505122540 47 0 0.0 3.0 0.10 0.20 0.20 84 1012.0
20260505122041 47 0 0.0 3.0 0.11 0.20 0.20 83 1011.5
20260505121621 47 0 0.0 1.0 0.08 0.17 0.17 81 1011.2
20260505121041 48 0 0.0 4.0 0.05 0.14 0.14 78 1011.3
20260505120540 49 0 0.0 6.0 0.02 0.10 0.10 76 1011.4
20260505120110 49 0 1.0 6.0 0.02 0.10 0.10 74 1012.7
20260505115543 49 305 0.0 6.0 0.02 0.10 0.10 75 1011.5
20260505115044 49 0 1.0 6.0 0.03 0.10 0.10 76 1009.6
20260505114551 48 0 0.0 5.0 0.05 0.10 0.10 78 1009.6
20260505114044 48 0 0.0 5.0 0.05 0.10 0.10 78 1009.6
20260505113544 48 48 0.0 5.0 0.05 0.10 0.10 77 1009.4
20260505113055 48 128 0.0 3.0 0.05 0.10 0.10 78 1009.5
20260505112544 49 0 0.0 3.0 0.05 0.10 0.10 76 1009.7
20260505112044 49 329 0.0 3.0 0.04 0.09 0.09 76 1009.9
20260505111554 49 0 0.0 3.0 0.04 0.09 0.09 73 1010.1
20260505111048 49 0 0.0 2.0 0.04 0.09 0.09 74 1010.7
20260505110544 49 0 0.0 5.0 0.03 0.08 0.08 72 1010.0
20260505102044 54 26 2.0 14.0 0.00 0.05 0.05 50 1008.8
20260505101557 54 49 3.0 13.0 0.00 0.05 0.05 49 1008.9
20260505101044 54 36 3.0 11.0 0.00 0.05 0.05 50 1008.8
20260505100544 54 38 1.0 8.0 0.00 0.05 0.05 51 1008.9
20260505100136 54 0 2.0 8.0 0.00 0.05 0.05 51 1009.1
20260505095547 54 90 0.0 7.0 0.00 0.05 0.05 51 1009.3
20260505095046 54 0 0.0 11.0 0.00 0.05 0.05 51 1009.0
20260505094556 54 63 0.0 11.0 0.00 0.05 0.05 51 1009.1
20260505094040 55 17 2.0 11.0 0.00 0.05 0.05 49 1009.0
20260505093541 55 355 1.0 9.0 0.00 0.05 0.05 49 1009.1
20260505093058 55 0 1.0 7.0 0.00 0.05 0.05 50 1009.3
20260505092550 55 0 1.0 5.0 0.00 0.05 0.05 50 1009.2
20260505092045 54 0 0.0 6.0 0.00 0.05 0.05 50 1009.3
20260505091614 55 77 0.0 6.0 0.00 0.05 0.05 50 1009.3
20260505091044 55 0 1.0 6.0 0.00 0.05 0.05 49 1009.2
20260505090544 54 0 0.0 3.0 0.00 0.05 0.05 50 1009.3
20260505090101 55 51 0.0 5.0 0.00 0.05 0.05 49 1009.2
20260505085540 55 0 1.0 5.0 0.00 0.05 0.05 48 1009.0
20260505085040 55 0 0.0 5.0 0.00 0.05 0.05 49 1009.0
20260505084552 55 0 0.0 7.0 0.00 0.05 0.05 50 1009.2
20260505084044 55 0 1.0 7.0 0.00 0.05 0.05 49 1009.1
20260505083542 55 15 0.0 3.0 0.00 0.05 0.05 49 1008.9
20260505083054 55 332 0.0 3.0 0.00 0.05 0.05 50 1008.8
20260505082540 55 13 0.0 5.0 0.00 0.05 0.05 49 1008.7
20260505082041 55 0 1.0 5.0 0.00 0.05 0.05 48 1008.4
20260505081554 55 0 0.0 9.0 0.00 0.05 0.05 49 1008.3
20260505081044 55 0 0.0 11.0 0.00 0.05 0.05 48 1008.2
20260505080541 55 28 1.0 11.0 0.00 0.05 0.05 48 1008.0
20260505080054 55 58 1.0 17.0 0.00 0.05 0.05 48 1007.8
20260505075540 55 64 0.0 17.0 0.00 0.05 0.05 49 1007.6
20260505075040 55 20 0.0 5.0 0.00 0.05 0.05 50 1007.7
20260505074547 55 24 1.0 9.0 0.00 0.05 0.05 49 1007.7
20260505074044 55 47 1.0 9.0 0.01 0.05 0.05 51 1007.6
20260505073539 55 32 1.0 12.0 0.01 0.05 0.05 53 1007.6
20260505073058 55 55 0.0 12.0 0.02 0.05 0.05 54 1007.8
20260505072543 55 0 2.0 12.0 0.02 0.05 0.05 54 1007.7
20260505072042 55 55 1.0 9.0 0.03 0.05 0.05 57 1007.7
20260505071550 54 0 1.0 9.0 0.03 0.05 0.05 59 1007.7
20260505071040 54 34 0.0 9.0 0.04 0.05 0.05 62 1007.7
20260505070541 54 0 1.0 10.0 0.04 0.05 0.05 63 1008.2
20260505070052 54 46 2.0 10.0 0.05 0.05 0.05 66 1008.3
20260505065541 53 0 1.0 6.0 0.05 0.05 0.05 67 1008.7
20260505065040 53 60 0.0 3.0 0.05 0.05 0.05 71 1009.0
20260505064546 53 59 0.0 8.0 0.05 0.05 0.05 71 1009.0
20260505064040 53 0 0.0 8.0 0.04 0.04 0.04 69 1009.4
20260505063540 54 76 2.0 8.0 0.04 0.04 0.04 68 1007.6
20260505063053 54 61 0.0 3.0 0.03 0.03 0.03 68 1008.6
20260505062540 54 57 0.0 3.0 0.03 0.03 0.03 66 1009.1
20260505062040 55 36 0.0 4.0 0.02 0.02 0.02 67 1009.1
20260505061549 55 52 0.0 6.0 0.02 0.02 0.02 64 1008.6
20260505061040 56 51 0.0 6.0 0.01 0.01 0.01 63 1008.7
20260505060546 57 288 1.0 6.0 0.01 0.01 0.01 60 1009.0
20260505060052 59 0 1.0 9.0 0.00 0.00 0.00 55 1008.0
20260505055541 61 30 1.0 9.0 0.00 0.00 0.00 49 1007.6
20260505055044 62 35 1.0 8.0 0.00 0.00 0.00 45 1007.1
20260505054618 63 46 1.0 11.0 0.00 0.00 0.00 41 1007.2
20260505054041 63 22 2.0 11.0 0.00 0.00 0.00 41 1007.1
20260505053545 64 59 2.0 9.0 0.00 0.00 0.00 40 1006.9
20260505053053 64 24 1.0 9.0 0.00 0.00 0.00 39 1006.8
20260505052546 64 36 2.0 9.0 0.00 0.00 0.00 39 1006.4
20260505052044 65 140 2.0 11.0 0.00 0.00 0.00 39 1006.4
20260505051557 65 325 2.0 11.0 0.00 0.00 0.00 39 1006.0
20260505051045 66 30 0.0 7.0 0.00 0.00 0.00 39 1005.8
20260505050545 66 25 1.0 7.0 0.00 0.00 0.00 38 1005.5
20260505050104 66 58 1.0 4.0 0.00 0.00 0.00 39 1005.4
20260505041605 69 0 1.0 7.0 0.00 0.00 0.00 39 1005.2
20260505041041 70 59 1.0 7.0 0.00 0.00 0.00 39 1005.0
20260505040542 70 355 1.0 7.0 0.00 0.00 0.00 40 1004.7
20260505040100 71 54 0.0 6.0 0.00 0.00 0.00 40 1004.6
20260505035544 71 0 0.0 6.0 0.00 0.00 0.00 40 1004.9
20260505035040 71 28 0.0 5.0 0.00 0.00 0.00 39 1004.9
20260505034554 71 0 0.0 3.0 0.00 0.00 0.00 41 1005.0
20260505034044 72 0 0.0 11.0 0.00 0.00 0.00 42 1005.0
20260505033544 72 0 0.0 11.0 0.00 0.00 0.00 44 1004.8
20260505033048 71 47 1.0 11.0 0.00 0.00 0.00 47 1004.5
20260505032544 71 0 0.0 5.0 0.00 0.00 0.00 51 1004.5
20260505032047 71 70 1.0 5.0 0.00 0.00 0.00 53 1004.3
20260505031550 70 360 1.0 2.0 0.00 0.00 0.00 60 1004.0
20260505031043 70 0 0.0 2.0 0.00 0.00 0.00 64 1003.8
20260505030544 70 0 0.0 2.0 0.00 0.00 0.00 66 1003.6
20260505025541 70 0 0.0 4.0 0.00 0.00 0.00 65 1003.2
20260505025044 70 0 0.0 4.0 0.00 0.00 0.00 65 1003.3
20260505024547 70 0 0.0 2.0 0.00 0.00 0.00 65 1003.1
20260505024044 70 0 0.0 2.0 0.00 0.00 0.00 65 1003.1
20260505023545 70 0 0.0 2.0 0.00 0.00 0.00 65 1003.1
20260505023053 70 189 0.0 2.0 0.00 0.00 0.00 65 1003.0
20260505022541 70 0 0.0 1.0 0.00 0.00 0.00 65 1003.0
20260505022045 70 0 0.0 1.0 0.00 0.00 0.00 66 1002.8
20260505021555 70 0 0.0 0.0 0.00 0.00 0.00 66 1002.7
20260505021044 70 0 0.0 0.0 0.00 0.00 0.00 65 1002.8
20260505020545 70 0 0.0 1.0 0.00 0.00 0.00 65 1002.7
20260505020058 71 0 0.0 1.0 0.00 0.00 0.00 64 1002.6
20260505015542 71 0 0.0 2.0 0.00 0.00 0.00 65 1002.5
20260505015047 71 0 0.0 2.0 0.00 0.00 0.00 66 1002.5
20260505014553 71 0 0.0 0.0 0.00 0.00 0.00 67 1002.4
20260505014041 71 0 0.0 0.0 0.00 0.00 0.00 66 1002.4
20260505013547 71 0 0.0 0.0 0.00 0.00 0.00 65 1002.4
20260505013054 71 0 0.0 0.0 0.00 0.00 0.00 64 1002.3
20260505012544 72 0 0.0 0.0 0.00 0.00 0.00 63 1002.2
20260505012042 72 0 0.0 0.0 0.00 0.00 0.00 63 1002.2
20260505011552 73 0 0.0 0.0 0.00 0.00 0.00 60 1002.0
20260505011044 73 0 0.0 0.0 0.00 0.00 0.00 60 1001.9
20260505010546 74 0 0.0 0.0 0.00 0.00 0.00 59 1001.9
20260505010109 74 0 0.0 0.0 0.00 0.00 0.00 58 1001.9
20260505005545 75 0 0.0 0.0 0.00 0.00 0.00 56 1001.9
20260505005045 75 0 0.0 0.0 0.00 0.00 0.00 56 1002.0
20260505004549 75 0 0.0 1.0 0.00 0.00 0.00 55 1001.8
20260505004040 76 0 0.0 1.0 0.00 0.00 0.00 54 1002.0
20260505003540 76 0 0.0 1.0 0.00 0.00 0.00 54 1001.9
20260505003052 77 0 0.0 1.0 0.00 0.00 0.00 53 1001.9
20260505002546 77 0 0.0 1.0 0.00 0.00 0.00 52 1001.9
20260505002046 77 0 0.0 1.0 0.00 0.00 0.00 51 1001.9
20260505001551 77 0 0.0 1.0 0.00 0.00 0.00 51 1002.0
20260505001045 78 0 0.0 3.0 0.00 0.00 0.00 50 1002.1
20260505000543 78 0 0.0 3.0 0.00 0.00 0.00 49 1002.0
20260505000100 78 189 0.0 3.0 0.00 0.00 0.00 48 1002.1